GFSSW_con_mlcape_336.txt.gz
CAPE
0 0 0 0 0 0 0 0 0 0 0 0 0 0 0 0 0 0 0 0 0 0 0 0 0 0 0 0 0 2 0 4 184 72 247 287 123 230 163 141 291 112 75 443 358
0 0 0 0 0 0 0 0 0 0 0 0 0 0 0 0 0 0 0 0 0 0 0 0 0 0 0 0 5 12 0 118 137 205 280 207 191 317 260 248 335 299 327 242 49
0 0 0 0 0 0 0 0 0 0 0 0 0 0 0 0 0 0 0 0 0 0 0 0 0 0 0 46 52 176 203 138 144 329 283 211 91 353 449 402 443 301 315 27 0
0 0 0 0 0 0 0 0 0 0 0 0 0 0 0 0 0 0 0 0 0 0 0 0 0 0 0 75 91 151 189 204 298 349 182 271 218 418 484 624 494 456 86 0 0
0 0 0 0 0 0 0 0 0 0 0 0 0 0 0 0 0 0 0 0 0 0 0 0 28 95 222 52 17 60 186 279 255 177 324 440 512 607 548 659 651 326 3 0 0
0 0 0 0 0 0 0 0 0 0 0 0 0 0 0 0 0 0 0 0 0 0 0 0 9 92 144 57 30 182 273 296 251 193 375 530 518 501 628 662 578 251 9 0 0
0 0 0 0 0 0 0 0 0 0 0 0 0 0 0 0 0 0 0 0 0 0 0 0 3 42 19 76 389 292 23 1 152 163 412 524 508 361 555 642 458 264 117 0 0
0 0 0 0 0 0 0 0 0 0 0 0 0 0 0 0 0 0 0 0 0 0 0 0 0 8 73 25 0 38 17 44 133 201 289 32 224 499 479 507 360 333 201 11 0
0 0 0 0 0 0 0 0 0 0 0 0 0 0 0 0 0 0 0 0 0 0 0 0 0 11 10 3 16 18 44 64 204 163 265 225 345 659 478 462 431 358 248 110 7
0 0 0 0 0 0 0 0 0 0 0 0 0 0 0 0 0 0 0 0 0 0 0 0 0 32 2 2 72 75 100 151 230 139 78 284 691 751 408 466 482 393 397 279 150
0 0 0 0 0 0 0 0 0 0 0 0 0 0 0 0 0 0 0 0 0 0 0 0 6 3 84 97 44 40 0 1 26 117 5 129 361 838 480 326 325 305 586 134 217
0 0 0 0 0 0 0 0 0 0 0 0 0 0 0 0 0 0 0 0 0 0 0 0 0 0 0 0 0 0 3 1 49 169 12 265 143 733 624 404 240 360 281 216 208
0 0 0 0 0 0 0 0 0 0 0 0 0 0 0 0 0 0 0 0 0 0 0 0 0 0 0 0 0 0 3 2 6 0 85 230 90 336 470 467 251 212 333 148 163
0 0 0 0 0 0 0 0 0 0 0 0 0 0 0 0 0 0 0 0 0 0 0 0 0 0 0 9 0 6 0 22 66 111 3 35 70 552 512 312 313 330 298 300 215
0 0 0 0 0 0 0 0 0 0 0 0 0 0 0 0 0 0 0 0 0 0 0 0 3 0 4 0 3 0 0 22 4 199 18 0 37 667 724 626 546 413 316 166 150
0 0 0 0 0 0 0 0 0 0 0 0 0 0 0 0 0 0 0 0 0 0 0 0 0 0 0 1 0 0 8 47 37 86 0 0 39 243 344 127 2 533 369 169 137
0 0 0 0 0 0 0 0 0 0 0 0 0 0 0 0 0 0 0 0 0 0 0 0 0 0 7 0 2 4 58 52 60 135 26 38 28 49 1 0 0 37 329 175 67
0 0 0 0 0 0 0 0 0 10 0 0 0 0 0 0 0 0 0 0 0 0 0 0 0 4 10 10 3 6 18 32 2 0 98 44 2 0 19 57 48 36 82 195 151
0 0 0 0 0 0 0 0 0 7 0 0 0 0 0 0 0 0 0 0 0 0 0 0 0 12 1 18 0 22 57 58 17 72 83 15 11 0 26 50 82 38 59 169 246
0 0 0 0 0 0 0 0 0 0 0 0 0 0 0 0 0 0 0 0 0 0 1 0 7 0 0 3 0 3 5 23 25 0 23 30 64 25 35 17 74 134 172 137 227
0 0 0 0 0 0 0 0 0 0 0 0 0 0 0 0 0 0 0 0 0 0 0 0 1 39 3 11 16 0 0 57 0 0 29 10 65 48 84 12 50 103 250 281 287
0 0 0 0 0 0 0 0 0 0 0 0 0 0 0 0 0 1 0 7 0 0 0 0 0 0 8 17 0 0 52 101 48 55 23 86 91 15 14 88 0 49 228 214 254
0 0 0 0 0 0 0 0 0 0 0 0 0 0 0 0 0 0 4 0 0 0 10 24 1 0 2 18 4 0 25 44 0 0 0 24 85 8 131 45 9 92 22 99 149
0 0 0 0 0 0 0 0 0 0 0 0 0 0 0 0 0 0 0 0 0 0 0 10 43 17 0 10 3 13 98 27 45 20 12 42 50 377 58 21 0 0 129 88 185
0 0 0 0 0 0 0 0 0 0 0 0 0 0 0 0 0 0 0 0 0 0 0 0 0 0 0 0 29 27 58 81 42 79 38 14 6 245 6 0 0 6 132 87 290
0 0 0 0 0 0 0 0 0 0 0 0 0 0 0 1 101 226 220 335 4 14 0 174 54 0 27 14 21 36 12 55 39 28 0 0 51 80 51 37 11 0 106 31 3
0 0 0 0 0 0 0 0 0 0 0 0 0 5 0 240 182 156 92 211 262 261 124 35 293 45 136 34 26 18 3 17 10 1 15 118 125 401 324 220 15 0 0 0 13

GFSSW_con_mlcape_339.txt.gz
CAPE
0 0 0 0 0 0 0 0 0 0 0 0 0 0 0 0 0 0 0 0 0 0 0 0 0 0 0 0 33 0 22 15 36 0 81 152 144 178 32 51 14 1 174 165 0
0 0 0 0 0 0 0 0 0 0 0 0 0 0 0 0 0 0 0 0 0 0 0 0 0 0 0 0 25 43 11 0 44 34 178 237 146 150 234 197 178 189 122 0 0
0 0 0 0 0 0 0 0 0 0 0 0 0 0 0 0 0 0 0 0 0 0 0 0 0 0 11 0 35 61 36 80 90 55 136 284 298 203 235 285 185 173 0 0 0
0 0 0 0 0 0 0 0 0 0 0 0 0 0 0 0 0 0 0 0 0 0 0 0 0 20 67 23 27 85 118 115 157 132 123 167 354 384 390 293 227 36 0 0 0
0 0 0 0 0 0 0 0 0 0 0 0 0 0 0 0 0 0 0 0 0 0 0 0 0 0 16 144 200 109 170 99 168 382 383 480 454 497 451 334 77 0 0 0 0
0 0 0 0 0 0 0 0 0 0 0 0 0 0 0 0 0 0 0 0 0 0 0 0 0 25 62 135 218 140 62 85 145 393 518 326 424 353 506 411 134 0 0 0 0
0 0 0 0 0 0 0 0 0 0 0 0 0 0 0 0 0 0 0 0 0 0 0 0 7 0 0 0 1 2 0 52 63 426 428 424 420 392 474 425 230 5 0 0 0
0 0 0 0 0 0 0 0 0 0 0 0 0 0 0 0 0 0 0 0 0 0 0 0 5 0 24 2 1 3 5 52 100 311 355 19 294 463 462 461 324 118 0 0 0
0 0 0 0 0 0 0 0 0 0 0 0 0 0 0 0 0 0 0 0 0 0 0 0 78 39 9 0 0 18 10 27 88 134 190 86 140 431 298 473 243 152 18 0 0
0 0 0 0 0 0 0 0 0 0 0 0 0 0 0 0 0 0 0 0 0 0 0 0 0 28 12 18 9 31 48 111 135 205 160 135 264 507 408 428 298 235 190 0 0
0 0 0 0 0 0 0 0 0 0 0 0 0 0 0 0 0 0 0 0 0 0 0 0 0 0 33 56 63 96 67 123 126 74 1 18 448 588 478 395 372 230 196 162 26
0 0 0 0 0 0 0 0 0 0 0 0 0 0 0 0 0 0 0 0 0 0 0 0 0 0 19 61 59 1 1 7 20 91 0 19 124 588 378 269 216 295 270 403 90
0 0 0 0 0 0 0 0 0 0 0 0 0 0 0 0 0 0 0 0 0 0 0 0 0 0 7 35 13 2 1 28 17 53 0 0 0 544 330 192 180 200 279 225 81
0 0 0 0 0 0 0 0 0 0 0 0 0 0 0 0 0 0 0 0 0 0 0 0 0 0 33 14 0 5 6 16 1 2 0 0 0 576 472 344 282 160 231 102 145
0 0 0 0 0 0 0 0 0 0 0 0 0 0 0 0 0 0 0 0 0 0 0 0 0 0 0 42 36 12 8 0 11 1 0 0 0 84 147 433 242 140 131 147 143
0 0 0 0 0 0 0 0 0 0 0 0 0 0 0 0 0 0 0 0 0 0 0 0 0 0 0 1 0 14 38 131 71 23 3 0 0 6 56 315 273 214 249 211 117
0 0 0 0 0 0 0 0 0 0 0 0 0 0 0 0 0 0 0 0 0 0 0 0 0 0 1 10 0 1 10 16 10 64 69 12 7 0 0 0 0 200 379 192 77
0 0 0 0 0 0 0 0 0 0 2 0 0 0 0 0 0 0 0 0 0 0 0 0 0 3 5 22 8 8 14 25 2 48 10 35 0 0 2 0 0 13 448 89 1
0 0 0 0 0 0 0 0 0 0 0 0 0 0 0 0 0 0 0 0 0 0 0 0 0 1 0 0 8 15 14 41 45 9 13 52 37 3 3 18 0 5 4 110 10
0 0 0 0 0 0 0 0 0 0 0 0 0 0 0 0 0 0 0 0 0 0 0 0 0 7 12 14 17 9 1 0 18 1 0 40 6 12 13 18 14 41 38 38 67
0 0 0 0 0 0 0 0 0 0 0 0 0 0 5 3 0 0 0 0 0 0 0 0 4 32 0 12 0 10 12 0 4 0 39 0 0 16 0 7 5 0 51 35 0
0 0 0 0 0 0 0 0 0 0 0 0 0 0 0 0 0 0 0 0 0 0 0 0 0 0 26 6 4 3 0 20 85 57 1 0 0 64 45 23 5 12 31 32 1
0 0 0 0 0 0 0 0 0 0 0 0 0 0 0 0 0 0 0 0 0 0 0 1 26 0 5 35 11 5 6 2 55 3 0 0 0 25 95 44 10 0 16 1 0
0 0 0 0 0 0 0 0 0 0 0 0 0 0 0 0 0 0 0 0 0 0 0 2 0 0 0 4 0 0 0 41 30 18 1 4 14 155 94 19 0 0 0 0 0
0 0 0 0 0 0 0 0 0 0 0 0 0 0 0 2 46 0 130 0 0 0 0 0 0 0 0 0 13 15 27 41 73 42 5 42 175 119 58 3 0 0 0 0 0
0 0 0 0 0 0 0 0 0 0 0 0 0 0 0 0 141 173 87 162 357 1 0 2 0 0 0 2 110 21 47 40 17 0 27 274 285 182 115 56 1 0 0 0 0
0 0 0 0 0 0 0 0 0 0 0 0 0 0 138 468 378 176 0 1 23 145 94 133 292 288 56 49 8 3 3 53 10 41 30 171 408 109 0 0 0 0 0 0 23

GFSSW_con_mlcape_342.txt.gz
CAPE
0 0 0 0 0 0 0 0 0 0 0 0 0 0 0 0 0 0 0 0 0 0 0 0 0 0 0 0 0 0 0 2 10 2 35 42 42 26 21 95 103 1 0 0 0
0 0 0 0 0 0 0 0 0 0 0 0 0 0 0 0 0 0 0 0 0 0 0 0 0 0 0 0 0 0 2 4 40 7 72 202 194 237 150 80 112 16 0 0 0
0 0 0 0 0 0 0 0 0 0 0 0 0 0 0 0 0 0 0 0 0 0 0 0 0 0 0 0 8 0 66 25 51 34 30 277 383 352 279 267 241 0 0 0 0
0 0 0 0 0 0 0 0 0 0 0 0 0 0 0 0 0 0 0 0 0 0 0 0 0 8 18 8 0 11 22 27 76 30 66 253 301 335 277 230 143 0 0 0 0
0 0 0 0 0 0 0 0 0 0 0 0 0 0 0 0 0 0 0 0 0 0 0 0 0 9 37 63 27 57 92 40 55 119 278 334 334 330 254 159 0 0 0 0 0
0 0 0 0 0 0 0 0 0 0 0 0 0 0 0 0 0 0 0 0 0 0 0 0 0 0 9 1 40 3 16 80 189 313 379 367 409 383 204 1 0 0 0 0 0
0 0 0 0 0 0 0 0 0 0 0 0 0 0 0 0 0 0 0 0 0 0 0 0 22 8 7 0 0 14 15 57 240 369 389 291 317 259 331 65 0 0 0 0 0
0 0 0 0 0 0 0 0 0 0 0 0 0 0 0 0 0 0 0 0 0 0 0 0 2 21 34 0 7 7 26 34 110 217 294 252 109 405 422 275 19 0 0 0 0
0 0 0 0 0 0 0 0 0 0 0 0 0 0 0 0 0 0 0 0 0 0 0 0 7 0 0 0 0 0 13 59 45 134 275 182 46 468 421 356 172 0 0 0 0
0 0 0 0 0 0 0 0 0 0 0 0 0 0 0 0 0 0 0 0 0 0 0 0 0 0 0 0 0 0 3 2 31 78 53 166 105 400 420 434 378 62 0 0 0
0 0 0 0 0 0 0 0 0 0 0 0 0 0 0 0 0 0 0 0 0 0 0 0 0 0 0 0 1 20 34 1 16 31 112 79 79 175 462 397 502 168 23 0 0
0 0 0 0 0 0 0 0 0 0 0 0 0 0 0 0 0 0 0 0 0 0 0 0 0 0 0 0 28 44 9 15 24 18 8 0 1 156 411 358 465 409 234 21 0
0 0 0 0 0 0 0 0 0 0 0 0 0 0 0 0 0 0 0 0 0 0 0 0 0 0 0 7 43 6 0 0 0 15 0 0 0 369 435 376 358 286 319 188 10
0 0 0 0 0 0 0 0 0 0 0 0 0 0 0 0 0 0 0 0 0 0 0 0 0 0 3 23 18 11 0 0 16 37 22 0 0 108 198 384 257 232 265 309 200
0 0 0 0 0 0 0 0 0 0 0 0 0 0 0 0 0 0 0 0 0 0 0 0 0 0 0 23 4 3 0 11 18 24 1 0 0 0 0 0 86 347 89 237 181
0 0 0 0 0 0 0 0 0 0 0 0 0 0 0 0 0 0 0 0 0 0 0 0 0 0 0 16 11 11 24 28 8 18 34 0 0 0 0 7 8 106 279 139 161
0 0 0 0 0 0 0 0 0 0 0 0 0 0 0 0 0 0 0 0 0 0 0 0 0 0 0 5 9 6 0 0 0 0 1 7 19 0 0 0 0 9 41 215 129
0 0 0 0 0 0 0 0 0 0 0 0 0 0 0 0 0 0 0 0 0 0 0 0 0 0 1 2 0 0 0 0 0 0 0 38 24 5 0 0 0 2 0 93 137
0 0 0 0 0 0 0 0 0 0 0 0 0 0 0 0 0 0 0 0 0 0 0 0 0 0 7 1 0 0 1 0 0 0 0 2 4 15 15 2 4 3 0 0 10
0 0 0 0 0 0 0 0 0 0 0 0 0 0 0 0 0 0 0 0 0 0 0 0 0 0 8 9 0 11 1 0 4 0 0 0 0 0 9 27 5 2 0 7 28
0 0 0 0 0 0 0 0 0 0 0 0 0 0 0 0 0 0 0 0 0 0 0 0 0 0 1 31 25 29 31 1 1 0 0 0 0 0 7 12 7 0 0 7 88
0 0 0 0 0 0 0 0 0 0 0 0 0 0 0 0 0 0 0 0 0 0 0 0 0 0 28 9 9 11 20 2 2 35 31 0 0 32 0 2 0 0 6 44 111
0 0 0 0 0 0 0 0 0 0 0 0 0 0 0 0 0 0 0 0 0 0 0 0 5 1 30 35 33 20 7 16 4 0 3 0 0 91 74 38 0 0 0 0 0
0 0 0 0 0 0 0 0 0 0 0 0 0 0 0 0 9 2 1 0 0 0 0 0 0 0 0 1 1 0 36 18 9 1 0 0 0 28 87 12 15 21 0 0 0
0 0 0 0 0 0 0 0 0 0 0 0 0 0 0 0 9 36 34 99 0 0 0 0 0 0 0 0 19 26 9 16 15 3 0 0 1 23 29 9 2 13 0 0 0
0 0 0 0 0 0 0 0 0 0 0 0 0 0 34 242 157 126 0 1 106 45 0 0 0 0 0 7 23 15 3 5 1 0 0 54 176 193 83 53 10 0 0 0 0
0 0 0 0 0 0 0 0 0 0 0 0 0 0 344 232 158 91 12 0 0 12 74 27 0 44 0 47 7 0 3 49 92 58 135 213 236 193 133 46 0 0 0 0 0

GFSSW_con_mlcape_345.txt.gz
CAPE
0 0 0 0 0 0 0 0 0 0 0 0 0 0 0 0 0 0 0 0 0 0 0 0 0 0 0 0 1 0 0 0 4 0 2 22 45 29 1 151 9 0 0 0 0
0 0 0 0 0 0 0 0 0 0 0 0 0 0 0 0 0 0 0 0 0 0 0 0 0 0 0 0 0 0 0 7 4 0 22 22 1 19 150 155 7 0 0 0 0
0 0 0 0 0 0 0 0 0 0 0 0 0 0 0 0 0 0 0 0 0 0 0 0 0 0 0 0 1 0 56 0 39 2 58 111 29 113 57 96 1 0 0 0 0
0 0 0 0 0 0 0 0 0 0 0 0 0 0 0 0 0 0 0 0 0 0 0 0 9 16 0 0 0 25 0 33 50 16 101 200 173 135 119 160 0 0 0 0 0
0 0 0 0 0 0 0 0 0 0 0 0 0 0 0 0 0 0 0 0 0 0 0 0 25 35 10 0 29 32 39 4 39 48 52 174 181 249 204 83 0 0 0 0 0
0 0 0 0 0 0 0 0 0 0 0 0 0 0 0 0 0 0 0 0 0 0 0 0 0 0 29 17 3 13 21 18 1 2 67 146 242 293 147 0 0 0 0 0 0
0 0 0 0 0 0 0 0 0 0 0 0 0 0 0 0 0 0 0 0 0 0 0 0 2 3 0 6 21 17 87 42 65 109 229 240 264 265 45 0 0 0 0 0 0
0 0 0 0 0 0 0 0 0 0 0 0 0 0 0 0 0 0 0 0 0 0 0 0 0 0 5 0 0 17 1 31 125 216 259 223 130 306 9 0 0 0 0 0 0
0 0 0 0 0 0 0 0 0 0 0 0 0 0 0 0 0 0 0 0 0 0 0 0 0 0 0 0 0 0 2 4 87 117 249 182 154 81 91 0 0 0 0 0 0
0 0 0 0 0 0 0 0 0 0 0 0 0 0 0 0 0 0 0 0 0 0 0 0 0 0 0 0 0 0 1 1 4 24 146 183 109 177 332 266 139 0 0 0 0
0 0 0 0 0 0 0 0 0 0 0 0 0 0 0 0 0 0 0 0 0 0 0 0 0 0 0 0 0 0 9 4 7 1 56 56 79 59 337 430 301 219 0 0 0
0 0 0 0 0 0 0 0 0 0 0 0 0 0 0 0 0 0 0 0 0 0 0 0 0 0 0 0 0 0 9 25 16 5 12 1 4 51 121 302 405 364 220 5 0
0 0 0 0 0 0 0 0 0 0 0 0 0 0 0 0 0 0 0 0 0 0 0 0 0 0 0 0 0 3 1 11 1 6 11 0 0 105 284 336 335 379 395 211 16
0 0 0 0 0 0 0 0 0 0 0 0 0 0 0 0 0 0 0 0 0 0 0 0 0 0 0 0 0 4 0 0 8 7 7 0 0 0 69 317 464 457 425 362 189
0 0 0 0 0 0 0 0 0 0 0 0 0 0 0 0 0 0 0 0 0 0 0 0 0 0 0 0 0 6 0 1 11 9 0 0 0 16 0 3 15 396 578 338 348
0 0 0 0 0 0 0 0 0 0 0 0 0 0 0 0 0 0 0 0 0 0 0 0 0 0 0 0 1 2 17 1 4 6 0 0 0 0 0 4 0 24 27 20 97
0 0 0 0 0 0 0 0 0 0 0 0 0 0 0 0 0 0 0 0 0 0 0 0 0 0 0 2 0 0 0 0 0 0 0 0 2 0 0 0 0 0 0 0 57
0 0 0 0 0 0 0 0 0 0 0 0 0 0 0 0 0 0 0 0 0 0 0 0 0 0 0 0 6 2 0 0 0 0 0 0 1 0 0 0 0 0 0 0 1
0 0 0 0 0 0 0 0 0 0 0 0 0 0 0 0 0 0 0 0 0 0 0 0 0 0 0 1 0 0 0 0 0 0 0 0 0 0 5 1 0 0 0 4 0
0 0 0 0 0 0 0 0 0 0 0 0 0 0 0 0 0 0 0 0 0 0 0 0 0 0 0 1 4 0 0 1 0 0 0 0 0 0 17 3 0 0 0 0 0
0 0 0 0 0 0 0 0 0 0 0 0 0 0 0 0 0 0 0 0 0 0 0 0 0 0 0 0 5 0 6 1 0 0 11 0 2 0 20 0 5 0 0 0 0
0 0 0 0 0 0 0 0 0 0 0 0 0 0 0 0 0 0 0 0 0 0 0 0 0 0 0 0 0 1 20 8 5 0 8 0 2 0 1 0 0 0 0 0 4
0 0 0 0 0 0 0 0 0 0 0 0 0 0 0 0 0 0 0 0 0 0 0 0 0 0 0 0 0 21 12 0 0 0 2 10 5 46 27 0 0 0 0 0 0
0 0 0 0 0 0 0 0 0 0 0 0 0 0 0 3 0 1 0 0 0 0 0 0 0 0 0 0 0 10 9 0 4 1 0 1 0 0 36 25 3 0 0 0 0
0 0 0 0 0 0 0 0 0 0 0 0 0 0 0 0 29 35 8 0 0 0 0 0 0 0 0 5 16 8 1 0 4 3 12 15 14 70 110 28 16 0 0 0 0
0 0 0 0 0 0 0 0 0 0 0 0 0 56 106 85 80 52 0 1 9 2 0 0 0 0 0 5 10 0 0 0 2 5 15 35 152 136 62 12 18 1 0 0 0
0 0 0 0 0 0 0 0 0 0 0 0 0 171 159 43 0 0 0 0 0 0 21 1 0 0 0 6 1 0 3 67 70 55 36 11 0 202 147 58 17 0 0 0 0